Regional Weather Roundup
Issued by NWS Bismarck, ND

Home | Current Version | Previous Version | Text Only | Print | Product List | Glossary On
Versions: 1 2 3 4 5 6 7 8 9 10 11 12 13 14 15 16 17 18 19 20 21 22 23 24 25 26 27 28 29 30 31 32 33 34 35 36 37 38 39 40 41 42 43 44 45 46 47 48 49 50
000
ASUS43 KBIS 282210
RWRBIS

NWR BROADCAST TEXT
NATIONAL WEATHER SERVICE BISMARCK ND
500 PM CDT SAT MAR 28 2015

NOTE: "FAIR" INDICATES FEW OR NO CLOUDS BELOW 12,000 FEET WITH NO
SIGNIFICANT WEATHER AND/OR OBSTRUCTIONS TO VISIBILITY.


CITY           SKY/WX    TMP DP  RH WIND       PRES   REMARKS
WILLISTON      CLOUDY    77  36  22 SW17G24   29.40F
MINOT          CLOUDY    63  39  41 S18G28    29.48F
MINOT AFB      CLOUDY    62  46  55 S21       29.45F
BISMARCK       SUNNY     66  35  31 S20G28    29.61F
DICKINSON      PTSUNNY   78  33  19 S25       29.48F
GARRISON         N/A     62  39  42 S16       29.51F
HETTINGER ARPT MOSUNNY   78  31  17 S21G28    29.57F
JAMESTOWN      MOSUNNY   53  35  50 S30G38    29.71F
BEACH          FAIR      77  28  16 SW16G25   29.48F
CARRINGTON     FAIR      54  37  54 S30G38    29.67F
CROSBY         FAIR      66  45  45 W6        29.43S
HARVEY         FAIR      59  37  44 S24G32    29.59F
HAZEN          FAIR      73  37  27 S29G38    29.51F
LINTON         FAIR      64  37  36 S28G36    29.65F
MANDAN         FAIR      66  36  32 S20G30    29.60F
OAKES            N/A     54  36  50 S25G32    29.77F
RUGBY            N/A     55  39  54 S17G29    29.55F
WATFORD CITY   FAIR      75  34  22 W14G22    29.42F
$$

CITY           SKY/WX    TMP DP  RH WIND       PRES   REMARKS
GRAND FORKS    CLOUDY    49  31  49 S23G38    29.77F
GRAND FORKS AF NOT AVBL
DEVILS LAKE    PTSUNNY   48  39  71 S24       29.65F
FARGO          SUNNY     53  28  38 S28G37    29.84F
CAVALIER       FAIR      45  36  70 S28G35    29.68F
GWINNER        CLEAR     54  32  43 S23         N/A
ROLLA          FAIR      48  41  76 S22G29    29.58F
WALHALLA         N/A     45  37  76 S21G30    29.67F
$$

CITY           SKY/WX    TMP DP  RH WIND       PRES   REMARKS
ABERDEEN       SUNNY     57  31  37 S20G35    29.81F
MOBRIDGE       SUNNY     67  36  31 S26       29.66F
BUFFALO          N/A     80  28  15 SW22      29.51F
RAPID CITY     SUNNY     82  26  13 W17       29.62F
GLASGOW        LGT RAIN  52  40  63 W33G47    29.63R
SIDNEY         CLOUDY    75  34  22 W43G49    29.44S
WOLF POINT     CLOUDY    66  44  45 W31G39    29.56R
GLENDIVE         N/A     70  36  28 W41G67    29.54R
MILES CITY     CLOUDY    64  43  46 NW22G31   29.61R
BAKER          MOSUNNY   79  29  16 W18G31    29.52F
$$

CITY           SKY/WX    TMP DP  RH WIND       PRES   REMARKS
BILLINGS       MOSUNNY   62  28  27 W44G58    29.77R
GREAT FALLS    PTSUNNY   53  23  31 W36G51    29.85R
REGINA         LGT RAIN  50  46  87 NW16      29.47R
$$




USA.gov is the U.S. government's official web portal to all federal, state and local government web resources and services.